Location: *
(50.5492°N, 7.7469°E)
Time: 00:14:19
(UTC+00:00)

STARLINK-63 - Pass Details

Date: 21 October 2019
Orbit: 548 x 551 km, 53.0° (Epoch: 20 November)

Event Time Altitude Azimuth Distance (km) Brightness Sun altitude
Rises 18:57:04 0° 286° (WNW) 2,722 8.6 -24.6°
Reaches altitude 10° 18:59:19 10° 289° (WNW) 1,827 7.3 -25.0°
Enters shadow 19:02:43 57° 308° (NW) 652 4.1 -25.5°
